Weather History for KFNB - October, 2013

Change the Weather History Date:

Friday, October 18, 2013

  Actual Average (KSTJ) Record (KSTJ)
Temperature  
Mean Temperature 42 °F 54 °F  
Max Temperature 48 °F 66 °F 88 °F (1945)
Min Temperature 35 °F 42 °F 27 °F (1999)
Degree Days  
Heating Degree Days 23 11  
Month to date heating degree days 158  
Since 1 July heating degree days 238  
Cooling Degree Days 0 0  
Month to date cooling degree days 18  
Year to date cooling degree days 1217  
Moisture  
Dew Point 33 °F    
Average Humidity 75    
Maximum Humidity 92    
Minimum Humidity 46    
Precipitation  
Precipitation 0.00 in 0.09 in 1.49 in (1979)
Month to date precipitation 1.68  
Year to date precipitation 31.40  
Sea Level Pressure  
Sea Level Pressure 30.09 in    
Wind  
Wind Speed 6 mph (WNW)    
Max Wind Speed 14 mph    
Max Gust Speed -    
Visibility 10 miles    
Events      
T = Trace of Precipitation, MM = Missing Value Source: NWS Daily Summary

Daily Weather History Graph

Daily Weather History Graph

Search for Another Location

Airport or City:

Trip Planner

Search our weather history database for the weather conditions in past years. The results will help you decide how hot, cold, wet, or windy it might be!

Date:

Astronomy

Oct. 18, 2013 Rise Set
Actual Time 7:36 AM CDT 6:37 PM CDT
Civil Twilight 7:08 AM CDT 7:05 PM CDT
Nautical Twilight 6:37 AM CDT 7:36 PM CDT
Astronomical Twilight 6:06 AM CDT 8:08 PM CDT
Moon 6:28 PM CDT (10/18) 7:12 AM CDT (10/18)
Length of Visible Light 11h 56m
Length of Day
11h 01m
Full, 100% of the Moon is Illuminated
Oct 18
Full
Oct 18
Full
Oct 26
Last Quarter
Nov 3
New
Nov 9
First Quarter

Hourly Weather History & Observations

Time (CDT) Temp. Windchill Dew Point Humidity Pressure Visibility Wind Dir Wind Speed Gust Speed Precip Events Conditions
12:53 AM 44.1 °F 40.8 °F 37.0 °F 76% 30.05 in 10.0 mi NW 5.8 mph - N/A   Partly Cloudy
1:53 AM 39.9 °F 35.8 °F 36.0 °F 86% 30.06 in 10.0 mi NW 5.8 mph - N/A   Clear
2:45 AM 41.0 °F 37.1 °F 35.6 °F 81% 30.07 in 10.0 mi WNW 5.8 mph - N/A   Mostly Cloudy
2:53 AM 39.9 °F 36.7 °F 36.0 °F 86% 30.07 in 10.0 mi WNW 4.6 mph - N/A   Mostly Cloudy
3:08 AM 39.2 °F 35.9 °F 35.6 °F 87% 30.06 in 10.0 mi WNW 4.6 mph - N/A   Scattered Clouds
3:53 AM 39.0 °F 34.8 °F 35.1 °F 86% 30.06 in 10.0 mi NW 5.8 mph - N/A   Clear
4:53 AM 37.9 °F 33.5 °F 35.1 °F 89% 30.07 in 10.0 mi NW 5.8 mph - N/A   Clear
5:53 AM 37.0 °F 31.0 °F 34.0 °F 89% 30.09 in 10.0 mi WNW 8.1 mph - N/A   Clear
6:53 AM 36.0 °F 30.3 °F 33.1 °F 89% 30.11 in 10.0 mi WNW 6.9 mph - N/A   Clear
7:53 AM 37.9 °F 35.5 °F 35.1 °F 89% 30.12 in 10.0 mi NW 3.5 mph - N/A   Overcast
8:53 AM 39.9 °F 35.1 °F 35.1 °F 83% 30.14 in 10.0 mi WNW 6.9 mph - N/A   Overcast
9:53 AM 41.0 °F 37.1 °F 35.1 °F 79% 30.15 in 10.0 mi WNW 5.8 mph - N/A   Overcast
10:53 AM 43.0 °F 39.5 °F 34.0 °F 71% 30.14 in 10.0 mi NNW 5.8 mph - N/A   Overcast
11:53 AM 45.0 °F 41.8 °F 30.9 °F 58% 30.14 in 10.0 mi NNW 5.8 mph - N/A   Mostly Cloudy
12:53 PM 46.0 °F 43.1 °F 30.9 °F 56% 30.13 in 10.0 mi NNW 5.8 mph - N/A   Overcast
1:53 PM 46.9 °F - 30.9 °F 54% 30.12 in 10.0 mi NW 8.1 mph - N/A   Overcast
2:53 PM 46.9 °F - 28.9 °F 50% 30.10 in 10.0 mi NNW 5.8 mph - N/A   Overcast
3:53 PM 46.9 °F - 28.9 °F 50% 30.10 in 10.0 mi West 5.8 mph - N/A   Overcast
4:53 PM 48.0 °F - 28.0 °F 46% 30.09 in 10.0 mi NW 4.6 mph - N/A   Mostly Cloudy
5:53 PM 46.9 °F - 30.0 °F 52% 30.08 in 10.0 mi West 5.8 mph - N/A   Clear
6:53 PM 43.0 °F 39.5 °F 30.0 °F 60% 30.08 in 10.0 mi West 5.8 mph - N/A   Clear
7:53 PM 39.9 °F 33.4 °F 35.1 °F 83% 30.09 in 10.0 mi SW 10.4 mph - N/A   Clear
8:53 PM 39.0 °F 31.0 °F 35.1 °F 86% 30.09 in 10.0 mi SW 13.8 mph - N/A   Clear
9:53 PM 37.0 °F 29.8 °F 34.0 °F 89% 30.09 in 10.0 mi SW 10.4 mph - N/A   Clear
10:53 PM 36.0 °F 28.5 °F 33.1 °F 89% 30.09 in 10.0 mi WSW 10.4 mph - N/A   Clear
11:53 PM 35.1 °F 29.3 °F 33.1 °F 92% 30.07 in 10.0 mi WSW 6.9 mph - N/A   Clear